Location: Bats
(43.6587°N, 0.4584°W)
Time: 10:39:23
(UTC+00:00)

Cosmos 2074 Rocket - Pass Details

Date: 12 January 2026
Orbit: 966 x 986 km, 82.9° (Epoch: 10 February)

Event Time Altitude Azimuth Distance (km) Brightness Sun altitude
Rises 17:04:37 0° 350° (N) 3,693 6.8 -3.6°
Reaches altitude 10° 17:07:09 10° 350° (N) 2,738 6.2 -4.1°
Maximum altitude 17:13:25 79° 265° (W) 997 4.3 -5.1°
Drops below altitude 10° 17:19:37 10° 179° (S) 2,706 6.7 -6.1°
Sets 17:22:06 0° 179° (S) 3,646 7.3 -6.5°
